Location: La Chapelle
(48.3135°N, 1.3085°W)
Time: 01:59:30
(UTC+00:00)

FALCON 9 DEB - Pass Details

Date: 03 March 2021
Orbit: 372 x 388 km, 53.0° (Epoch: 11 April)

Event Time Altitude Azimuth Distance (km) Brightness Sun altitude
Rises 17:43:21 0° 263° (W) 2,282 10.3 0.7°
Reaches altitude 10° 17:45:27 10° 270° (W) 1,429 7.8 0.3°
Maximum altitude 17:48:33 45° 345° (NNW) 548 3.7 -0.2°
Drops below altitude 10° 17:51:39 10° 60° (ENE) 1,434 5.2 -0.7°
Enters shadow 17:53:37 - 66° (ENE) 2,223 6.1 -1.0°
Exits shadow 18:29:46 -76° 92° (E) 12,778 10.5 -7.0°
